Weather History for MMCN - November, 2012

Change the Weather History Date:

Tuesday, November 13, 2012

  Actual Average Record
Temperature  
Mean Temperature 74 °F -  
Max Temperature 89 °F 84 °F 99 °F (2013)
Min Temperature 58 °F 59 °F 51 °F (2000)
Cooling Degree Days 8    
Growing Degree Days 24 (Base 50)    
Moisture  
Dew Point 38 °F    
Average Humidity 29    
Maximum Humidity 55    
Minimum Humidity 13    
Precipitation  
Precipitation 0.00 in - - ()
Sea Level Pressure  
Sea Level Pressure 29.93 in    
Wind  
Wind Speed 4 mph ()    
Max Wind Speed 13 mph    
Max Gust Speed -    
Visibility 10.3 miles    
Events      
Averages and records for this station are not official NWS values.
T = Trace of Precipitation, MM = Missing Value Source: Averaged Metar Reports

Daily Weather History Graph

Daily Weather History Graph

Search for Another Location

Airport or City:

Trip Planner

Search our weather history database for the weather conditions in past years. The results will help you decide how hot, cold, wet, or windy it might be!

Date:

Astronomy

Nov. 13, 2012 Rise Set
Actual Time 6:38 AM MST 5:28 PM MST
Civil Twilight 6:14 AM MST 5:52 PM MST
Nautical Twilight 5:46 AM MST 6:21 PM MST
Astronomical Twilight 5:18 AM MST 6:48 PM MST
Moon 6:19 AM MST (11/13) 5:26 PM MST (11/13)
Length of Visible Light 11h 38m
Length of Day
10h 49m
Waning Crescent, 0% of the Moon is Illuminated
Nov 13
Waning Crescent
Nov 13
New
Nov 20
First Quarter
Nov 28
Full
Dec 6
Last Quarter

Hourly Weather History & Observations

Time (MST) Temp. Dew Point Humidity Pressure Visibility Wind Dir Wind Speed Gust Speed Precip Events Conditions
4:42 AM 57.2 °F 41.0 °F 55% 29.95 in 10.0 mi WNW 4.6 mph - N/A   Scattered Clouds
5:42 AM 57.2 °F 35.6 °F 44% 29.95 in 10.0 mi NE 3.5 mph - N/A   Scattered Clouds
6:42 AM 57.2 °F 33.8 °F 41% 29.95 in 10.0 mi SE 2.3 mph - N/A   Overcast
7:43 AM 60.8 °F 35.6 °F 39% 29.95 in 10.0 mi SE 2.3 mph - N/A   Mostly Cloudy
7:50 AM 60 °F 42 °F 39% 29.99 in 9 mi ESE 2.2 mph - -   Mostly Cloudy
8:40 AM 66.2 °F 35.6 °F 32% 29.97 in 10.0 mi Calm Calm - N/A   Mostly Cloudy
9:43 AM 68.0 °F 37.4 °F 33% 29.99 in 10.0 mi WNW 4.6 mph - N/A   Mostly Cloudy
10:43 AM 73.4 °F 35.6 °F 25% 29.97 in 10.0 mi NNW 2.3 mph - N/A   Mostly Cloudy
10:50 AM 72 °F 46 °F 28% 29.99 in 12 mi WSW 4.5 mph - -   Partly Cloudy
11:44 AM 77.0 °F 33.8 °F 21% 29.95 in 10.0 mi WSW 4.6 mph - N/A   Scattered Clouds
12:41 PM 80.6 °F 35.6 °F 20% 29.91 in 10.0 mi SW 4.6 mph - N/A   Scattered Clouds
1:43 PM 84.2 °F 32.0 °F 15% 29.90 in 10.0 mi West 5.8 mph - N/A   Scattered Clouds
1:50 PM 86 °F 43 °F 13% 29.92 in 12 mi WSW 8.9 mph - -   Scattered Clouds
2:41 PM 86.0 °F 30.2 °F 13% 29.87 in 10.0 mi WSW 4.6 mph - N/A   Mostly Cloudy
3:42 PM 86.0 °F 32.0 °F 14% 29.87 in 10.0 mi SW 6.9 mph - N/A   Scattered Clouds
4:42 PM 84.2 °F 33.8 °F 16% 29.88 in 10.0 mi West 5.8 mph - N/A   Scattered Clouds
4:50 PM 81 °F 53 °F 27% 29.91 in 12 mi WSW 13.4 mph - -   Clear
5:41 PM 77.0 °F 41.0 °F 28% 29.89 in 10.0 mi WSW 4.6 mph - N/A   Mostly Cloudy
6:42 PM 71.6 °F 44.6 °F 38% 29.90 in 10.0 mi West 3.5 mph - N/A   Partly Cloudy
7:45 PM 68.0 °F 46.4 °F 46% 29.92 in 10.0 mi NW 4.6 mph - N/A   Clear